sat.trackr.live / text

‹ back to catalog

STARLINK-37706

NORAD 69127 · 2026-110D

PAYLOAD ACTIVE UNKNOWN

§ Identity

Operator
Country
US
Launch date
2026-05-20
Launch site
AFWTR
Launch vehicle
Mass (kg)
RCS (m²)

Purposes: comms

External: N2YO · Heavens-Above · Gunter

§ Orbital elements

Epoch: 2026-09-19T18:59:09.244608Z

Period
93.91 min
Inclination
97.2852°
Eccentricity
0.0002613
Mean motion
15.33461793 rev/d
Perigee alt
463.7 km
Apogee alt
467.3 km
Semi-major
6,843.6 km
B*
4.6317e-4
RAAN
97.8008°
Arg perigee
91.4089°
Mean anomaly
268.7453°
Rev number
2,010

§ Raw data

STARLINK-377061 69127U 26110D   26262.79107922  .00014916  00000+0  46317-3 0  99942 69127  97.2852  97.8008 0002613  91.4089 268.7453 15.33461793 20105

JSON: /api/v1/satellites/69127 · /tle

For live sub-satellite position, see the globe view (requires WebGL).

§ Visibility from observer

Set your observer location to see the next 7 days of passes ≥ 10°. The values pass through the URL so the page stays shareable.

No JS? Fill the form by hand. The geolocation button needs JavaScript.